Regional Weather Roundup
Issued by NWS

Home | Current Version | Previous Version | Text Only | Print | Product List | Glossary On
Versions: 1 2 3 4 5 6 7 8 9 10 11 12 13 14 15 16 17 18 19 20 21 22 23 24 25 26 27 28 29 30 31 32 33 34 35 36 37 38 39 40 41 42 43 44 45 46 47 48 49 50
000
ASUS44 KOUN 281800
RWROK

WEATHER ROUNDUP FOR OKLAHOMA
NATIONAL WEATHER SERVICE NORMAN OK
1200 PM CST SUN DEC 28 2014

NOTE: "FAIR" INDICATES FEW OR NO CLOUDS BELOW 12,000 FEET WITH NO
      SIGNIFICANT WEATHER AND/OR OBSTRUCTIONS TO VISIBILITY.

OKZ001>007-009>012-014-015-017-281900-
NORTHWEST OKLAHOMA AND THE PANHANDLE

CITY           SKY/WX    TMP DP  RH WIND       PRES   REMARKS
GAGE           SUNNY     41  17  38 S21G28    30.09F
6HR MIN TEMP:  12; 6HR MAX TEMP:  41;

ENID/WOODRING  MOSUNNY   39  25  56 S9        30.20F WCI  33
$$

OKZ016-021>023-033>039-044-045-281900-
SOUTHWEST OKLAHOMA

CITY           SKY/WX    TMP DP  RH WIND       PRES   REMARKS
LAWTON/REGL    SUNNY     32  24  72 W5        30.24F WCI  27
6HR MIN TEMP:  15; 6HR MAX TEMP:  32;

LAWTON/FT SILL SUNNY     35  22  61 SW6       30.22F WCI  29
FREDERICK      SUNNY     39  27  62 S10       30.19F WCI  32
CLINTON        SUNNY     41  19  41 S20       30.17F
HOBART         SUNNY     40  22  48 S17       30.19F WCI  31
$$

OKZ018>020-024>031-281900-
CENTRAL OKLAHOMA

CITY           SKY/WX    TMP DP  RH WIND       PRES   REMARKS
OKLAHOMA CITY  MOSUNNY   35  21  56 S6        30.21F WCI  30
6HR MIN TEMP:  18; 6HR MAX TEMP:  35;

OKC/WILEY POST SUNNY     37  23  56 S7        30.22F WCI  32
STILLWATER     SUNNY     40  21  46 S7        30.22F
GUTHRIE        SUNNY     39  21  48 SW6       30.21F WCI  35
$$

OKZ008-013-054>072-281900-
NORTHEAST OKLAHOMA

CITY           SKY/WX    TMP DP  RH WIND       PRES   REMARKS
TULSA          MOSUNNY   34  23  64 CALM      30.25F
6HR MIN TEMP:  22; 6HR MAX TEMP:  35;

TULSA/JONES    SUNNY     34  22  61 CALM      30.26F
PONCA CITY     SUNNY     38  22  52 S6        30.22F WCI  33
BARTLESVILLE   SUNNY     37  21  52 CALM      30.26F
MUSKOGEE       MOSUNNY   36  27  69 N3        30.26F
$$

OKZ032-040>043-046>053-073>077-281900-
SOUTH CENTRAL/SOUTHEAST OKLAHOMA

CITY           SKY/WX    TMP DP  RH WIND       PRES   REMARKS
MCALESTER      MOSUNNY   37  26  64 NE6       30.24F WCI  32
$$



USA.gov is the U.S. government's official web portal to all federal, state and local government web resources and services.